Flag for U.S.A. Weather past 2 weeks in Roanoke, Virginia, U.S.A.

Now
67 °F

Scattered clouds.


Feels Like: 67 °F
Forecast: 64 / 75 °F
Wind: 6 mph from Northwest

Location: Roanoke Regional Airport

Current Time: Jun 2, 2015 at 9:51:59 AM

Latest Report: Jun 2, 2015 at 8:54 AM


Visibility: 10 mi

Pressure: 30.04 "Hg

Humidity: 87%

Dew point: 63 °F

Location of RoanokeLocation

Historic Weather in Roanoke — Graph

°F

Roanoke temperature yesterday

Maximum temperature yesterday: 84 °F (at 12:54 PM)
Minimum temperature yesterday: 65 °F (at 4:54 AM)
Average temperature yesterday: 71 °F

Past Weeks' High & Low Weather Summary

 TemperatureHumidityPressure
High87 °F (May 18, 3:54 PM)100% (May 30, 4:54 AM)30.47 "Hg (May 30, 4:54 AM)
Low50 °F (May 23, 5:54 AM)23% (May 20, 2:54 PM)29.87 "Hg (May 21, 4:54 PM)
Average71 °F65%30.14 "Hg
* Reported May 18 8:54 AM — Jun 2 8:54 AM, Roanoke, Weather by CustomWeather, © 2015

Note: Actual official high and low records may vary slightly from our data, if they occured in-between our weather recording intervals... More about our weather records

Advertising

Roanoke weather history for previous 24 hours

 ConditionsComfort  
Time TempWeatherWind HumidityBarometerVisibility
8:54 AM
Tue, Jun 2
67 °FScattered clouds.6 mph87%30.04 "Hg10 mi
7:54 AM65 °FOvercast.3 mph97%30.03 "Hg10 mi
6:54 AM65 °FOvercast.No wind94%30.00 "Hg10 mi
5:54 AM64 °FPassing clouds.No wind94%29.99 "Hg10 mi
4:54 AM65 °FPassing clouds.3 mph94%29.99 "Hg10 mi
3:54 AM66 °FOvercast.5 mph93%30.00 "Hg10 mi
2:54 AM66 °FOvercast.3 mph93%30.01 "Hg10 mi
1:54 AM66 °FPassing clouds.3 mph93%30.01 "Hg10 mi
12:54 AM66 °FPassing clouds.No wind96%30.01 "Hg10 mi
11:54 PM
Mon, Jun 1
66 °FPassing clouds.No wind100%30.01 "Hg10 mi
10:54 PM67 °FPartly cloudy.No wind97%30.03 "Hg10 mi
9:54 PM67 °FPassing clouds.No wind97%30.04 "Hg10 mi
8:54 PM67 °FLight rain. More clouds than sun.7 mph97%30.01 "Hg10 mi
7:54 PM66 °FLight rain. More clouds than sun.5 mph100%30.01 "Hg10 mi
7:01 PM68 °FThunderstorms. Fog.3 mph90%30.02 "Hg5 mi
5:56 PM75 °FThunderstorms. Partly sunny.9 mph76%29.99 "Hg10 mi
4:54 PM81 °FBroken clouds.7 mph58%29.96 "Hg10 mi
3:54 PM75 °FBroken clouds.3 mph76%29.98 "Hg10 mi
2:54 PM74 °FPassing clouds.No wind76%30.01 "Hg10 mi
1:54 PM75 °FThunderstorms. Broken clouds.13 mph76%30.03 "Hg5 mi
12:54 PM84 °FScattered clouds.5 mph51%30.03 "Hg10 mi
11:54 AM80 °FBroken clouds.5 mph58%30.05 "Hg10 mi
10:54 AM77 °FOvercast.7 mph64%30.06 "Hg10 mi
9:54 AM75 °FPartly sunny.No wind66%30.06 "Hg10 mi
Weather by CustomWeather, © 2015

See weather overviewHow to use our weather pages